When you browse on this site, cookies collect data to enhance your experience and personalize the content and advertising you see.
Visit our Privacy Policy to learn more. By continuing to use the site, you agree to this use of cookies and data.
  • In Hungary
  • List of Countries
  • For 7 days
  • Water Temperature
  • Weather Map
  • News
  • Weather Widgets
  • user-avatar
    Login

    Hourly Weather Malaya Berezha

    Today, 19 January, Sunday

    Time Temperature Precipitation Wind Pressure Humidity
    00:00 -2°C° 0 mm 3 mps 750 mmHg 85%
    01:00 -2°C° 0 mm 3 mps 751 mmHg 86%
    02:00 -2°C° 0 mm 3 mps 751 mmHg 87%
    03:00 -2°C° 0 mm 3 mps 751 mmHg 88%
    04:00 -2°C° 0 mm 3 mps 751 mmHg 89%
    05:00 -2°C° 0 mm 3 mps 752 mmHg 90%
    06:00 -2°C° 0 mm 3 mps 752 mmHg 89%
    07:00 -1°C° 0 mm 3 mps 752 mmHg 89%
    08:00 -1°C° 0 mm 3 mps 752 mmHg 89%
    09:00 0°C° 0 mm 3 mps 753 mmHg 88%
    10:00 0°C° 0 mm 3 mps 753 mmHg 86%
    11:00 -1°C° 0 mm 4 mps 753 mmHg 85%
    12:00 0°C° 0 mm 4 mps 753 mmHg 84%
    13:00 0°C° 0 mm 4 mps 753 mmHg 82%
    14:00 0°C° 0 mm 4 mps 753 mmHg 81%
    15:00 -1°C° 0 mm 4 mps 753 mmHg 82%
    16:00 -1°C° 0 mm 4 mps 753 mmHg 82%
    17:00 -1°C° 0 mm 4 mps 753 mmHg 83%
    18:00 -1°C° 0 mm 4 mps 753 mmHg 84%
    19:00 -1°C° 0 mm 4 mps 753 mmHg 85%
    20:00 -1°C° 0 mm 4 mps 753 mmHg 86%
    21:00 -1°C° 0 mm 5 mps 753 mmHg 87%
    22:00 -1°C° 0 mm 5 mps 753 mmHg 88%
    23:00 -1°C° 0 mm 5 mps 753 mmHg 89%

    Tomorrow, 20 January, Monday

    Time Temperature Precipitation Wind Pressure Humidity
    00:00 0°C° 0 mm 5 mps 753 mmHg 89%
    01:00 0°C° 0 mm 5 mps 753 mmHg 88%
    02:00 0°C° 0 mm 5 mps 754 mmHg 87%
    03:00 0°C° 0 mm 5 mps 753 mmHg 89%
    04:00 0°C° 0 mm 5 mps 753 mmHg 90%
    05:00 0°C° 0 mm 5 mps 753 mmHg 91%
    06:00 0°C° 0.1 mm 4 mps 753 mmHg 93%
    07:00 0°C° 0.1 mm 4 mps 753 mmHg 95%
    08:00 0°C° 0.1 mm 4 mps 754 mmHg 97%
    09:00 0°C° 0.1 mm 4 mps 753 mmHg 96%
    10:00 0°C° 0.1 mm 5 mps 753 mmHg 95%
    11:00 0°C° 0.1 mm 5 mps 753 mmHg 94%
    12:00 0°C° 0.1 mm 5 mps 753 mmHg 93%
    13:00 0°C° 0.1 mm 5 mps 753 mmHg 93%
    14:00 -1°C° 0.1 mm 5 mps 753 mmHg 92%
    15:00 -1°C° 0 mm 5 mps 753 mmHg 93%
    16:00 -1°C° 0 mm 5 mps 752 mmHg 93%
    17:00 -1°C° 0 mm 5 mps 752 mmHg 94%
    18:00 -1°C° 0 mm 5 mps 752 mmHg 90%
    19:00 -1°C° 0 mm 5 mps 751 mmHg 86%
    20:00 -2°C° 0 mm 6 mps 751 mmHg 82%
    21:00 -2°C° 0.1 mm 6 mps 750 mmHg 85%
    22:00 -3°C° 0.1 mm 6 mps 750 mmHg 87%
    23:00 -3°C° 0.1 mm 6 mps 749 mmHg 90%

    Day after tomorrow, 21 January, Tuesday

    Time Temperature Precipitation Wind Pressure Humidity
    00:00 -3°C° 0.4 mm 6 mps 749 mmHg 92%
    01:00 -2°C° 0.4 mm 5 mps 748 mmHg 94%
    02:00 -2°C° 0.4 mm 5 mps 747 mmHg 95%
    03:00 -2°C° 0.4 mm 5 mps 746 mmHg 94%
    04:00 -3°C° 0.4 mm 6 mps 745 mmHg 93%
    05:00 -2°C° 0.4 mm 6 mps 744 mmHg 91%
    06:00 -2°C° 0.3 mm 6 mps 743 mmHg 90%
    07:00 -1°C° 0.3 mm 7 mps 742 mmHg 88%
    08:00 0°C° 0.3 mm 7 mps 742 mmHg 87%
    09:00 0°C° 0.1 mm 7 mps 741 mmHg 87%
    10:00 +2°C° 0.1 mm 7 mps 741 mmHg 87%
    11:00 +2°C° 0.1 mm 6 mps 740 mmHg 87%
    12:00 +2°C° 0.1 mm 6 mps 740 mmHg 85%
    13:00 +3°C° 0.1 mm 6 mps 740 mmHg 83%
    14:00 +3°C° 0.1 mm 6 mps 739 mmHg 81%
    15:00 +3°C° 0 mm 6 mps 739 mmHg 83%
    16:00 +2°C° 0 mm 5 mps 738 mmHg 84%
    17:00 +2°C° 0 mm 5 mps 738 mmHg 86%
    18:00 +1°C° 0.4 mm 4 mps 737 mmHg 89%
    19:00 +1°C° 0.4 mm 4 mps 737 mmHg 93%
    20:00 0°C° 0.4 mm 4 mps 736 mmHg 96%
    21:00 0°C° 0.2 mm 4 mps 736 mmHg 93%
    22:00 -1°C° 0.2 mm 5 mps 736 mmHg 90%
    23:00 -2°C° 0.2 mm 6 mps 736 mmHg 86%

    22 January, Wednesday

    Time Temperature Precipitation Wind Pressure Humidity
    00:00 -3°C° 0 mm 6 mps 736 mmHg 83%
    01:00 -2°C° 0 mm 5 mps 736 mmHg 80%
    02:00 -4°C° 0 mm 5 mps 737 mmHg 78%
    03:00 -4°C° 0 mm 5 mps 736 mmHg 78%
    04:00 -4°C° 0 mm 5 mps 736 mmHg 79%
    05:00 -4°C° 0 mm 6 mps 736 mmHg 80%
    06:00 -4°C° 0 mm 5 mps 736 mmHg 81%
    07:00 -4°C° 0 mm 5 mps 736 mmHg 81%
    08:00 -4°C° 0 mm 5 mps 735 mmHg 82%
    09:00 -4°C° 0 mm 5 mps 736 mmHg 79%
    10:00 -4°C° 0 mm 6 mps 736 mmHg 76%
    11:00 -3°C° 0 mm 6 mps 736 mmHg 72%
    12:00 -3°C° 0.1 mm 6 mps 736 mmHg 73%
    13:00 -2°C° 0.1 mm 5 mps 735 mmHg 73%
    14:00 -2°C° 0.1 mm 5 mps 735 mmHg 73%
    15:00 -4°C° 0 mm 5 mps 735 mmHg 77%
    16:00 -4°C° 0 mm 5 mps 736 mmHg 80%
    17:00 -4°C° 0 mm 4 mps 736 mmHg 84%
    18:00 -4°C° 0 mm 4 mps 736 mmHg 84%
    19:00 -4°C° 0 mm 4 mps 737 mmHg 83%
    20:00 -4°C° 0 mm 4 mps 737 mmHg 83%
    21:00 -5°C° 0.1 mm 5 mps 737 mmHg 80%
    22:00 -5°C° 0.1 mm 5 mps 738 mmHg 77%
    23:00 -5°C° 0.1 mm 5 mps 739 mmHg 74%

    23 January, Thursday

    Time Temperature Precipitation Wind Pressure Humidity
    00:00 -6°C° 0 mm 5 mps 739 mmHg 72%
    01:00 -8°C° 0 mm 6 mps 740 mmHg 71%
    02:00 -9°C° 0 mm 6 mps 741 mmHg 69%
    03:00 -9°C° 0 mm 6 mps 741 mmHg 67%
    04:00 -10°C° 0 mm 6 mps 742 mmHg 64%
    05:00 -10°C° 0 mm 5 mps 742 mmHg 62%
    06:00 -10°C° 0 mm 5 mps 742 mmHg 65%
    07:00 -8°C° 0 mm 5 mps 743 mmHg 69%
    08:00 -8°C° 0 mm 5 mps 743 mmHg 72%
    09:00 -8°C° 0.2 mm 5 mps 743 mmHg 73%
    10:00 -8°C° 0.2 mm 6 mps 743 mmHg 74%
    11:00 -8°C° 0.2 mm 6 mps 744 mmHg 75%
    12:00 -8°C° 0.1 mm 6 mps 744 mmHg 70%
    13:00 -9°C° 0.1 mm 6 mps 745 mmHg 65%
    14:00 -9°C° 0.1 mm 6 mps 745 mmHg 61%
    15:00 -10°C° 0 mm 6 mps 746 mmHg 62%
    16:00 -10°C° 0 mm 5 mps 747 mmHg 62%
    17:00 -11°C° 0 mm 5 mps 747 mmHg 63%
    18:00 -10°C° 0 mm 4 mps 748 mmHg 64%
    19:00 -10°C° 0 mm 4 mps 748 mmHg 65%
    20:00 -10°C° 0 mm 4 mps 749 mmHg 66%
    21:00 -9°C° 0 mm 3 mps 749 mmHg 67%
    22:00 -10°C° 0 mm 3 mps 749 mmHg 69%
    23:00 -9°C° 0 mm 2 mps 750 mmHg 70%

    24 January, Friday

    Time Temperature Precipitation Wind Pressure Humidity
    00:00 -8°C° 0 mm 2 mps 749 mmHg 71%
    01:00 -8°C° 0 mm 2 mps 749 mmHg 73%
    02:00 -8°C° 0 mm 2 mps 749 mmHg 74%
    03:00 -8°C° 0 mm 3 mps 749 mmHg 75%
    04:00 -8°C° 0 mm 3 mps 748 mmHg 75%
    05:00 -7°C° 0 mm 3 mps 748 mmHg 76%
    06:00 -7°C° 0.2 mm 3 mps 747 mmHg 82%
    07:00 -7°C° 0.2 mm 4 mps 747 mmHg 88%
    08:00 -5°C° 0.2 mm 4 mps 746 mmHg 94%
    09:00 -5°C° 0.4 mm 4 mps 746 mmHg 93%
    10:00 -5°C° 0.4 mm 5 mps 745 mmHg 93%
    11:00 -4°C° 0.4 mm 5 mps 745 mmHg 92%
    12:00 -2°C° 0.1 mm 5 mps 745 mmHg 93%
    13:00 -1°C° 0.1 mm 5 mps 745 mmHg 94%
    14:00 0°C° 0.1 mm 5 mps 744 mmHg 95%
    15:00 0°C° 0 mm 5 mps 744 mmHg 93%
    16:00 0°C° 0 mm 5 mps 744 mmHg 90%
    17:00 0°C° 0 mm 5 mps 745 mmHg 88%
    18:00 0°C° 0 mm 5 mps 745 mmHg 88%
    19:00 0°C° 0 mm 5 mps 745 mmHg 89%
    20:00 0°C° 0 mm 4 mps 745 mmHg 89%
    21:00 0°C° 0 mm 4 mps 746 mmHg 90%
    22:00 0°C° 0 mm 4 mps 746 mmHg 91%
    23:00 0°C° 0 mm 4 mps 746 mmHg 91%
    Show more